Regional Weather Roundup
Issued by NWS

Home | Current Version | Previous Version | Graphics & Text | Print | Product List | Glossary On
Versions: 1 2 3 4 5 6 7 8 9 10 11 12 13 14 15 16 17 18 19 20 21 22 23 24 25 26 27
000
ASUS45 KSLC 292010
RWRUT

UTAH REGIONAL WEATHER ROUNDUP
NATIONAL WEATHER SERVICE SALT LAKE CITY UT
200 PM MDT SUN MAY 29 2016

UTZ001>011-023>025-292100-

NORTHERN UTAH

CITY           SKY/WX    TMP DP  RH WIND       PRES   REMARKS
BRIGHAM CITY     N/A     74  37  25 CALM      30.07F
HILL AFB       SUNNY     74  40  28 S6        30.08F
LOGAN          MOSUNNY   71  43  36 N3        30.08F
OGDEN          SUNNY     76  40  27 NW8       30.06F
PROVO AIRPORT  MOSUNNY   75  45  33 VRB6      30.05F
SALT LAKE CITY PTSUNNY   78  40  25 N9        30.03F
VERNAL         SUNNY     73  37  27 CALM      30.11F
WENDOVER       MOSUNNY   73  39  29 SE9       30.04F
HEBER CITY     PTSUNNY   75  34  22 SW15      30.09F
WEST JORDAN    MOSUNNY   73  37  27 S3        30.06F

$$

UTZ012>022-026-027-292100-

SOUTHERN/CENTRAL UTAH

CITY           SKY/WX    TMP DP  RH WIND       PRES   REMARKS
BLANDING       SUNNY     78  24  13 S9G16     30.19F
BRYCE CANYON   SUNNY     70  18  13 S17G32    30.22F
CEDAR CITY     MOSUNNY   77  28  16 SW7G18    30.06F
DELTA          SUNNY     79  28  15 W8        30.04F
HANKSVILLE     SUNNY     82  30  15 E8        30.05F
MILFORD        SUNNY     80  29  15 S10       30.03F
MOAB/CYNLANDS  SUNNY     84  28  13 CALM      30.03F
PRICE          PTSUNNY   72  30  21 W12G31    30.15F
ST GEORGE      MOCLDY    88  36  15 NW8       29.95F

$$

REGIONAL REPORTS     COLORADO/ARIZONA

CITY           SKY/WX    TMP DP  RH WIND       PRES   REMARKS
CRAIG, CO      CLOUDY    71  37  28 W13       30.16F
GRAND JUNCTION CLOUDY    78  27  15 CALM      30.08F
RIFLE          CLOUDY    76  34  21 SE10      30.11F
MONTROSE       LGT RAIN  68  33  27 S25G41    30.19R
CORTEZ         MOSUNNY   79  24  13 SW16G23   30.11F
PAGE, AZ       SUNNY     84  28  13 N6        30.01F
GRAND CANYON   SUNNY     77  18  11 S8        30.16F
KINGMAN        SUNNY     83  26  12 SW15G25   30.01F
FLAGSTAFF      SUNNY     68  23  18 SW16G23   30.21F

$$

REGIONAL REPORTS    NEVADA/IDAHO/WYOMING

CITY           SKY/WX    TMP DP  RH WIND       PRES   REMARKS
LAS VEGAS, NV  MOSUNNY   90  27  10 VRB5      29.88F
ELY            LGT RAIN  67  29  24 VRB6G23   30.16S
ELKO           SUNNY     74  41  30 SW10      30.07F
POCATELLO, ID  MOSUNNY   74  39  28 W8        30.07F
BURLEY         MOSUNNY   75  38  26 N6        30.03F
EVANSTON, WY   CLOUDY    64  35  34 NW15G21   30.18F
ROCK SPRINGS   SUNNY     67  30  25 MISG      30.18F
KEMMERER         N/A     64  32  29 SW3       30.21F

$$




USA.gov is the U.S. government's official web portal to all federal, state and local government web resources and services.